This is the latest recevied weather packets stored in our database for station/object DB0NLS-15. If no packets are shown the sender has not sent any weather packets the latest 1 day(s).
| Time | Temp. | Humidity | Pressure | Rain* | Wind** | Luminosity | Snow |
|---|---|---|---|---|---|---|---|
| 1778052072 | 15.56° C | 77% | 992.6 hPa | 0 mm | - | - | - |
| 1778051469 | 15.56° C | 78% | 992.6 hPa | 0 mm | - | - | - |
| 1778050264 | 15° C | 78% | 992.6 hPa | 0 mm | - | - | - |
| 1778049059 | 14.44° C | 80% | 992.6 hPa | 0 mm | - | - | - |
| 1778048456 | 14.44° C | 81% | 992.6 hPa | 0 mm | - | - | - |
| 1778047853 | 13.89° C | 84% | 992.5 hPa | 0 mm | - | - | - |
| 1778046648 | 13.33° C | 87% | 992.5 hPa | 0 mm | - | - | - |
| 1778045443 | 13.33° C | 87% | 992.5 hPa | 0 mm | - | - | - |
| 1778044840 | 13.33° C | 87% | 992.3 hPa | 0 mm | - | - | - |
| 1778044237 | 13.33° C | 87% | 992.4 hPa | 0 mm | - | - | - |
| 1778043032 | 12.78° C | 88% | 992.5 hPa | 0 mm | - | - | - |
| 1778042459 | 12.78° C | 90% | 992.7 hPa | 0 mm | - | - | - |
| 1778041856 | 12.22° C | 91% | 992.6 hPa | 0 mm | - | - | - |
| 1778041254 | 12.22° C | 91% | 992.6 hPa | 0 mm | - | - | - |
| 1778040651 | 12.22° C | 91% | 992.5 hPa | 0 mm | - | - | - |
| 1778039446 | 12.78° C | 91% | 992.5 hPa | 0 mm | - | - | - |
| 1778038843 | 12.78° C | 91% | 992.7 hPa | 0 mm | - | - | - |
| 1778038241 | 12.78° C | 91% | 992.7 hPa | 0 mm | - | - | - |
| 1778037638 | 12.78° C | 91% | 992.8 hPa | 0 mm | - | - | - |
| 1778036433 | 12.78° C | 90% | 992.8 hPa | 0 mm | - | - | - |
| 1778035830 | 12.78° C | 90% | 993 hPa | 0 mm | - | - | - |
| 1778034625 | 12.78° C | 90% | 993.1 hPa | 0 mm | - | - | - |
| 1778033420 | 12.78° C | 90% | 993.3 hPa | 0 mm | - | - | - |
| 1778032817 | 12.78° C | 90% | 993.4 hPa | 0 mm | - | - | - |
| 1778032275 | 12.78° C | 90% | 993.4 hPa | 0 mm | - | - | - |
* Rain latest hour (hover to see other rain measurements)
** Current wind speed in m/s (hover to see current wind gust speed)